Wind_Speed
16 10 8 15 12 17 16 14 14 23 25 31 36 43 43 42 41 34 30 32 29 25 16 13 9 5 10 11 10 12 13 16 18 19 20 20 21 23 22 20 19 19 22
17 11 9 11 17 14 19 16 15 20 25 33 37 41 41 40 39 35 32 35 32 27 21 16 10 5 4 14 13 12 13 11 14 19 20 23 25 25 28 27 26 26 27
19 15 10 11 17 16 16 19 20 22 26 31 35 40 41 41 38 36 32 37 35 31 25 21 17 13 9 7 14 18 18 19 19 21 23 26 28 29 30 27 30 33 33
26 21 13 15 17 20 19 21 22 24 27 28 32 38 38 40 40 34 30 37 37 35 31 26 21 18 18 16 16 18 21 22 22 22 22 25 31 34 37 35 34 33 33
32 24 21 20 22 23 23 21 24 26 27 29 31 34 38 40 40 36 32 33 32 36 35 33 30 25 22 24 23 22 24 26 29 31 32 33 31 35 40 43 42 42 39
34 29 26 25 24 27 27 26 26 25 27 32 32 34 35 41 42 41 38 35 34 37 39 38 35 31 29 28 30 29 32 33 37 38 39 41 40 40 41 43 47 49 48
38 36 34 33 29 32 32 30 29 28 28 29 34 36 37 40 42 41 40 38 36 35 35 36 36 37 36 35 35 34 34 36 36 37 42 45 47 44 41 42 46 44 47
40 35 38 41 40 37 37 36 33 35 36 34 34 36 38 39 39 40 43 42 40 36 35 33 34 36 36 37 38 36 35 35 36 37 38 41 42 42 45 45 45 48 49
51 48 41 51 47 42 39 39 37 34 36 42 40 41 43 41 40 38 40 40 37 37 36 37 36 37 38 41 38 35 31 35 36 36 36 37 40 42 42 44 46 49 51
62 62 49 58 54 48 45 41 44 42 39 39 40 45 47 46 48 41 39 40 37 35 33 34 39 41 45 46 41 35 38 38 35 42 41 43 44 43 42 39 41 47 56
61 65 64 58 62 58 52 49 45 45 47 46 44 45 45 47 48 44 41 40 42 43 40 41 43 40 40 46 48 47 47 48 50 50 48 48 50 51 52 54 56 56 59
64 65 68 62 54 61 60 57 55 52 50 52 50 50 51 51 50 49 45 43 48 50 44 44 42 40 41 43 44 44 48 49 49 52 51 51 51 53 55 58 61 62 63
69 69 73 71 68 70 71 67 62 60 57 56 56 54 54 51 50 46 46 45 45 44 44 46 48 49 50 47 47 50 52 53 53 54 55 57 59 61 63 62 64 67 68
70 77 77 77 79 70 72 72 69 66 64 62 59 58 57 54 54 51 53 55 55 55 55 56 56 56 59 58 57 56 58 58 59 59 61 63 65 66 66 68 70 73 74
58 69 79 81 83 83 80 77 75 74 72 71 69 67 67 66 63 63 64 63 58 58 61 57 58 61 64 68 70 66 64 66 65 68 70 71 69 70 73 74 77 80 82
56 60 68 76 82 85 87 86 83 81 77 77 75 74 73 72 72 72 74 73 65 65 65 66 73 69 67 73 74 76 73 73 72 73 74 74 75 76 78 82 83 87 91
48 56 62 69 76 83 87 89 90 88 83 82 82 79 79 78 78 77 79 80 79 79 80 81 80 78 79 81 80 79 78 81 84 83 81 82 84 86 88 90 90 89 91
49 51 55 63 70 78 82 88 90 91 90 88 87 87 86 86 86 85 85 85 84 82 83 85 84 83 84 83 85 89 86 77 80 84 87 88 91 94 95 97 101 106 102
54 55 57 58 64 71 78 82 85 90 93 92 92 92 92 91 91 90 90 90 88 90 90 92 92 91 91 90 87 87 90 94 97 100 107 106 106 106 111 110 111 115 116
60 60 61 62 63 65 70 79 83 85 86 87 92 96 94 94 95 96 95 96 96 94 95 96 96 97 99 100 100 101 103 107 109 109 106 109 113 118 118 118 118 120 122
55 57 60 61 63 65 67 69 77 83 83 87 92 89 87 89 90 93 96 97 99 100 99 98 99 102 105 105 104 105 107 108 109 112 113 115 118 119 122 122 124 129 131
49 53 55 58 59 62 65 67 71 72 81 85 88 91 89 89 89 89 86 87 90 90 91 94 98 97 97 101 102 101 104 110 113 114 116 119 122 124 127 128 128 130 131
36 40 45 51 56 58 60 65 65 69 71 73 82 94 94 95 96 93 98 97 97 97 97 98 100 104 107 108 110 111 113 114 115 122 126 126 127 127 128 127 129 131 134
21 25 30 37 43 48 55 59 62 65 64 68 71 72 88 100 101 104 105 105 102 103 106 106 107 112 114 115 118 121 124 123 122 122 121 121 121 123 125 122 118 117 116
12 9 9 15 23 32 39 46 51 56 60 63 65 67 70 74 77 80 83 95 104 110 110 103 96 96 100 103 106 107 106 106 105 103 103 102 102 102 102 102 101 100 99
15 15 14 11 8 9 14 21 29 36 43 48 52 56 59 61 64 66 68 71 73 75 77 78 79 79 80 81 82 82 83 84 85 84 85 86 87 88 89 92 93 95 95
Wind_Direction
298 296 264 205 199 192 197 208 212 200 194 188 183 183 181 182 185 190 191 187 193 199 191 183 167 176 210 209 211 195 195 202 209 214 218 222 226 230 235 236 236 233 239
276 296 253 215 207 210 208 208 209 198 194 190 188 187 184 188 189 192 195 195 199 201 196 202 210 209 223 223 217 222 215 216 225 232 233 236 241 240 241 243 245 246 247
261 276 257 229 207 208 204 197 196 197 192 196 195 190 193 194 194 199 203 202 204 206 207 211 224 236 251 258 239 240 243 244 246 238 243 243 244 244 245 246 244 248 251
251 256 260 236 220 205 205 200 194 196 196 200 202 202 202 202 203 205 209 206 210 213 219 223 230 237 251 259 258 254 254 252 252 252 256 257 252 250 250 253 252 252 256
245 241 245 241 224 213 203 205 203 206 206 209 210 212 211 211 213 214 214 216 223 226 229 233 244 243 249 259 265 265 266 264 263 263 264 265 265 258 254 256 263 260 260
240 243 238 242 224 219 208 209 211 210 215 215 215 215 219 218 218 221 220 221 229 232 236 240 244 247 257 259 262 271 270 266 265 266 265 267 268 268 263 260 262 265 268
227 232 231 242 240 225 215 217 212 219 217 221 222 219 220 220 222 222 226 227 230 233 236 239 244 250 253 258 262 264 264 268 270 272 272 269 267 264 264 269 266 267 266
215 228 244 237 239 235 226 230 229 223 220 218 220 223 227 224 224 228 231 234 234 234 238 240 243 248 253 257 260 262 264 266 263 265 270 270 270 271 265 263 270 271 271
207 205 223 230 231 240 234 228 227 225 219 222 225 224 220 221 227 231 231 236 236 236 239 245 247 250 253 254 255 259 263 265 266 268 267 268 267 266 267 270 275 274 275
211 212 222 231 228 230 234 232 228 228 224 220 224 226 228 229 230 230 227 231 235 236 240 249 257 257 259 254 249 242 254 254 259 264 267 265 263 267 262 262 269 271 275
219 216 214 225 230 231 230 230 227 228 226 223 224 225 225 228 231 230 232 235 240 245 247 255 257 255 256 257 255 250 249 250 256 262 263 264 265 270 264 265 266 269 274
224 220 216 224 227 228 231 230 228 227 228 228 224 227 227 226 229 234 240 244 247 245 245 250 257 258 263 263 260 255 256 262 264 265 265 267 270 275 271 269 271 272 272
224 223 222 223 225 225 227 229 226 228 229 230 229 227 228 229 230 232 235 239 242 249 248 248 252 253 258 260 261 262 265 263 267 269 268 269 271 270 270 270 272 274 275
228 228 229 225 227 227 229 230 228 230 231 232 234 230 229 227 230 238 243 246 254 249 249 251 252 256 259 262 263 262 263 262 265 270 271 274 274 273 272 273 275 276 280
231 230 230 230 229 230 231 232 231 232 232 233 232 236 238 237 238 239 239 240 250 254 259 259 259 263 266 265 265 264 264 263 267 272 271 271 273 271 272 273 274 277 278
236 234 231 232 232 233 233 233 234 234 234 235 234 233 238 241 242 242 242 242 243 242 240 247 251 254 258 263 264 266 267 270 271 271 273 273 274 275 275 276 276 280 281
242 237 236 233 232 232 234 234 236 237 238 238 237 235 236 239 242 245 246 248 249 248 248 252 254 256 257 261 265 267 270 272 274 274 272 274 274 274 276 276 276 283 280
247 245 240 237 235 234 234 235 235 237 238 239 240 241 240 242 243 246 248 249 249 252 254 256 258 261 262 264 268 268 269 270 272 273 273 272 271 273 273 272 273 282 281
249 246 246 246 239 237 236 237 237 237 238 240 242 243 244 245 246 248 248 249 250 252 254 256 258 260 260 261 260 260 260 264 268 269 272 273 272 274 275 276 275 277 281
253 250 247 245 244 242 240 238 239 239 240 241 243 244 245 246 248 249 250 251 253 255 256 257 261 262 265 265 266 267 267 268 269 271 271 272 273 276 280 281 283 284 286
253 248 246 246 244 242 241 241 241 241 242 241 242 247 248 249 251 253 252 253 255 257 260 262 263 264 265 266 267 269 270 272 272 273 275 277 277 278 279 284 285 282 286
253 251 248 243 243 243 242 243 243 244 243 243 244 243 244 246 246 252 255 256 259 260 260 261 261 263 267 268 268 270 271 272 273 275 276 278 279 281 283 283 283 284 286
260 254 249 246 244 244 244 243 245 247 248 248 248 245 246 248 253 253 254 256 255 256 259 261 265 265 267 268 271 271 272 275 275 277 278 278 280 282 284 284 284 286 286
270 264 257 251 248 246 245 246 247 250 253 253 254 254 252 250 253 256 257 259 260 261 264 266 268 270 272 273 274 276 277 277 279 280 281 282 281 281 281 284 285 286 287
13 348 299 270 259 253 251 250 250 252 254 256 258 261 262 262 264 265 265 263 264 266 269 271 273 274 274 274 274 276 278 278 279 281 283 284 284 285 286 287 287 288 288
12 17 15 7 346 301 274 265 262 260 259 259 260 262 264 265 267 268 269 270 271 272 273 274 276 276 277 278 278 279 280 281 282 283 284 284 285 286 287 287 288 289 291
Height
10922 10919 10918 10919 10921 10921 10924 10927 10929 10930 10932 10936 10940 10945 10950 10956 10963 10968 10972 10977 10981 10986 10989 10991 10994 10996 10997 10999 11001 11002 11003 11005 11006 11007 11008 11009 11010 11010 11010 11010 11009 11009 11008
10920 10919 10918 10918 10920 10922 10924 10926 10929 10931 10934 10938 10942 10945 10950 10955 10960 10964 10970 10975 10978 10983 10986 10989 10991 10994 10996 10997 10999 11001 11002 11003 11004 11004 11004 11005 11005 11006 11006 11006 11006 11005 11005
10917 10917 10918 10918 10920 10922 10923 10926 10928 10932 10935 10940 10944 10947 10950 10954 10958 10963 10967 10971 10975 10979 10983 10986 10988 10991 10993 10995 10996 10998 10999 10999 11000 11001 11001 11001 11000 11000 10999 11000 11000 10999 10998
10914 10915 10918 10919 10919 10921 10923 10925 10928 10932 10935 10939 10944 10947 10951 10955 10957 10962 10964 10969 10973 10976 10979 10982 10984 10988 10990 10991 10993 10993 10994 10994 10995 10996 10996 10996 10995 10995 10994 10995 10995 10994 10992
10909 10912 10916 10917 10918 10919 10920 10923 10926 10930 10934 10937 10941 10945 10949 10953 10956 10959 10963 10967 10970 10973 10976 10978 10980 10983 10985 10986 10988 10989 10989 10989 10989 10990 10989 10989 10988 10988 10987 10987 10987 10986 10985
10904 10909 10913 10915 10914 10917 10918 10918 10922 10926 10930 10933 10937 10941 10944 10947 10951 10955 10959 10962 10965 10968 10970 10973 10976 10977 10979 10980 10981 10983 10983 10983 10983 10982 10982 10980 10980 10980 10978 10976 10976 10976 10975
10899 10905 10909 10911 10913 10913 10914 10916 10918 10922 10925 10929 10933 10936 10939 10942 10945 10949 10952 10955 10959 10961 10963 10965 10968 10970 10971 10973 10975 10975 10976 10975 10974 10973 10970 10970 10969 10969 10969 10968 10967 10965 10964
10892 10904 10906 10906 10908 10908 10908 10910 10912 10915 10919 10923 10926 10931 10934 10937 10940 10943 10946 10949 10952 10955 10957 10958 10960 10961 10963 10963 10966 10966 10966 10965 10965 10962 10961 10959 10958 10958 10957 10956 10955 10954 10952
10880 10875 10880 10892 10899 10901 10901 10902 10905 10908 10910 10914 10919 10922 10925 10929 10931 10935 10938 10940 10943 10946 10949 10951 10951 10952 10951 10954 10956 10956 10955 10954 10954 10953 10952 10950 10948 10946 10946 10945 10943 10941 10940
10862 10870 10877 10883 10886 10889 10893 10894 10897 10899 10903 10907 10911 10913 10916 10920 10921 10927 10928 10931 10934 10938 10940 10941 10940 10942 10941 10943 10945 10945 10944 10944 10942 10941 10941 10939 10937 10936 10935 10934 10932 10930 10926
10846 10852 10858 10865 10868 10876 10880 10884 10887 10890 10894 10897 10900 10902 10906 10909 10913 10918 10921 10923 10926 10928 10930 10931 10930 10931 10930 10931 10934 10934 10932 10932 10931 10930 10930 10929 10927 10926 10924 10921 10919 10917 10914
10831 10839 10845 10849 10857 10862 10868 10871 10876 10879 10882 10886 10888 10892 10896 10899 10903 10908 10910 10912 10913 10915 10917 10918 10919 10921 10921 10920 10921 10921 10921 10920 10919 10918 10917 10916 10914 10912 10909 10906 10903 10901 10898
10814 10820 10826 10833 10836 10841 10848 10855 10862 10866 10869 10873 10877 10880 10884 10888 10892 10895 10897 10899 10901 10903 10904 10905 10905 10906 10906 10907 10907 10907 10906 10905 10904 10903 10902 10900 10898 10895 10892 10889 10887 10884 10882
10796 10801 10808 10815 10820 10826 10832 10839 10846 10851 10856 10861 10865 10868 10872 10875 10878 10882 10885 10886 10888 10890 10891 10892 10893 10893 10893 10893 10892 10891 10890 10889 10888 10887 10886 10884 10881 10878 10876 10874 10870 10867 10863
10778 10783 10789 10794 10802 10808 10814 10821 10829 10834 10839 10844 10848 10853 10856 10860 10863 10865 10868 10871 10873 10875 10876 10878 10879 10878 10876 10875 10875 10875 10874 10873 10872 10870 10868 10866 10863 10861 10858 10855 10851 10847 10843
10762 10766 10771 10776 10783 10790 10796 10803 10808 10814 10820 10825 10830 10835 10839 10844 10847 10849 10851 10854 10856 10857 10858 10858 10859 10860 10858 10857 10857 10857 10855 10854 10853 10852 10850 10847 10844 10841 10838 10834 10830 10825 10820
10747 10749 10753 10758 10763 10769 10775 10782 10788 10794 10802 10806 10811 10816 10820 10824 10827 10831 10834 10835 10838 10840 10841 10841 10842 10842 10841 10841 10840 10839 10838 10836 10833 10830 10829 10826 10823 10819 10814 10810 10806 10802 10796
10732 10733 10736 10740 10744 10749 10755 10760 10767 10774 10780 10786 10791 10796 10800 10803 10807 10811 10814 10817 10819 10821 10821 10822 10823 10823 10822 10821 10820 10819 10818 10815 10812 10808 10806 10802 10799 10794 10790 10784 10779 10774 10769
10713 10716 10719 10721 10725 10730 10734 10740 10746 10752 10758 10764 10770 10774 10778 10782 10786 10790 10793 10795 10797 10799 10802 10802 10801 10801 10801 10800 10798 10796 10792 10789 10786 10784 10781 10777 10773 10768 10763 10758 10751 10745 10739
10689 10693 10696 10700 10705 10710 10715 10720 10726 10731 10737 10742 10746 10752 10757 10761 10764 10768 10772 10775 10777 10778 10778 10779 10779 10778 10777 10775 10772 10770 10767 10765 10762 10758 10754 10750 10746 10739 10733 10727 10721 10716 10709
10664 10668 10673 10678 10683 10690 10695 10701 10705 10711 10717 10721 10726 10732 10736 10739 10743 10746 10749 10751 10753 10754 10754 10754 10754 10752 10751 10749 10746 10743 10742 10740 10736 10732 10727 10721 10715 10710 10704 10698 10690 10683 10676
10644 10647 10652 10658 10664 10669 10675 10681 10686 10692 10697 10702 10707 10711 10715 10720 10722 10726 10727 10729 10729 10730 10731 10730 10729 10728 10726 10723 10721 10719 10715 10709 10705 10701 10695 10690 10684 10678 10672 10665 10657 10649 10644
10630 10632 10636 10641 10647 10652 10658 10664 10669 10674 10679 10683 10687 10691 10695 10699 10702 10704 10706 10705 10706 10704 10704 10705 10704 10702 10700 10696 10694 10690 10685 10682 10676 10671 10664 10658 10653 10646 10639 10631 10622 10614 10606
10623 10623 10625 10628 10632 10637 10643 10648 10653 10657 10661 10665 10669 10671 10675 10677 10680 10681 10681 10680 10680 10681 10681 10679 10677 10675 10670 10667 10662 10658 10654 10650 10644 10639 10633 10625 10618 10610 10604 10595 10588 10581 10573
10622 10621 10621 10622 10624 10628 10631 10636 10640 10643 10647 10650 10652 10653 10656 10659 10661 10660 10659 10660 10660 10659 10657 10655 10650 10645 10641 10637 10633 10628 10623 10617 10613 10608 10601 10595 10589 10581 10574 10567 10558 10550 10544
10625 10623 10623 10622 10623 10624 10625 10627 10629 10631 10633 10635 10637 10639 10640 10641 10640 10640 10638 10637 10635 10633 10631 10629 10624 10619 10615 10610 10605 10601 10596 10591 10586 10580 10574 10568 10561 10555 10548 10539 10532 10524 10517